Temp
82 82 81 80 81 81 81 81 81 80 79 79 78 77 75 74 70 68 69 72 76 80 84 78 80 82 81 80 82 81 82 81 80 82 82 82 82 76 69 70 69 69 69 69 69 69 69 69 69 69 70 69 70 70 70 70 70 71 71 71 72 73 73 73 73 74 74 74 74 74 75 76 77 77
82 82 81 81 81 82 80 81 81 80 79 79 79 78 78 76 72 71 68 71 76 76 81 83 79 80 80 82 81 82 81 78 79 81 81 82 83 74 70 70 70 69 69 68 68 68 68 68 68 68 68 68 68 69 70 70 70 71 71 71 72 72 72 72 72 73 74 74 74 74 75 75 75 76
82 81 80 81 80 81 81 81 82 81 80 79 79 78 78 77 75 73 71 69 75 79 76 80 84 81 80 82 82 81 81 80 80 80 80 80 76 72 75 71 70 69 69 68 68 67 66 67 67 67 67 68 68 69 69 70 70 70 70 71 71 71 72 71 71 72 73 74 74 73 74 74 75 75
82 81 80 80 79 80 80 80 80 80 80 80 80 79 78 77 77 75 72 70 71 78 79 79 80 82 81 81 80 80 81 81 77 80 80 80 76 79 80 75 70 69 68 68 67 66 66 66 67 67 68 68 68 69 69 69 69 69 69 70 70 71 71 70 70 71 72 73 73 73 74 74 74 74
81 80 79 80 80 81 79 79 80 80 80 80 79 79 79 78 78 76 73 71 72 76 80 79 79 81 81 80 81 79 80 79 80 79 81 81 81 81 81 83 76 70 69 68 67 66 66 66 66 67 67 68 68 68 69 68 68 68 68 68 68 69 69 69 69 70 71 72 72 73 73 74 73 73
81 80 79 80 81 82 80 79 79 80 81 80 80 80 79 78 78 78 75 73 72 71 76 78 81 80 82 78 81 78 78 78 79 79 79 81 82 80 80 81 83 75 69 67 66 66 66 66 66 66 67 67 67 67 68 67 66 66 66 66 66 67 66 66 67 68 69 70 71 72 72 73 73 73
81 80 79 80 80 81 80 79 79 80 79 80 79 79 79 78 78 78 77 74 72 72 74 76 77 78 79 78 78 79 79 78 79 77 78 80 82 81 80 81 82 76 71 68 67 66 66 66 66 66 67 66 66 66 65 65 65 64 64 64 65 65 65 65 66 67 68 69 70 71 71 72 72 73
80 80 79 80 81 81 79 79 79 79 80 79 78 78 78 77 77 77 77 76 74 73 72 75 75 77 76 78 80 80 79 79 78 78 79 80 79 80 81 80 81 78 71 69 68 67 66 66 66 65 65 65 64 64 63 63 64 64 63 63 63 63 64 63 64 66 66 66 68 69 70 71 71 70
81 80 80 81 81 80 79 78 78 79 78 79 78 78 78 77 78 78 77 76 76 73 72 74 77 77 76 78 78 79 77 78 78 79 78 79 78 78 81 81 82 75 71 70 69 68 67 67 66 65 65 65 65 64 64 63 64 64 63 63 63 63 63 63 63 63 64 64 65 65 67 68 69 70
82 81 81 81 81 80 79 78 79 79 78 79 78 77 77 77 77 76 76 76 75 74 73 73 74 76 75 76 76 78 78 76 76 76 77 77 77 76 77 80 82 82 81 81 81 73 71 69 65 65 66 66 65 64 64 64 63 62 62 60 60 61 62 62 63 63 63 63 64 65 65 67 67 68
84 83 82 81 81 80 80 80 79 79 79 78 78 77 77 77 76 75 75 75 75 74 74 74 75 74 76 76 74 77 78 77 76 73 73 74 77 77 75 75 79 81 81 78 74 75 75 72 75 71 67 66 65 65 66 65 63 62 61 59 59 59 59 60 61 62 62 62 63 62 62 64 66 67
85 84 84 84 83 82 82 81 80 80 78 79 78 78 78 77 76 75 75 75 74 74 74 73 73 74 74 75 76 77 76 74 74 76 75 72 72 74 75 75 75 76 77 78 81 77 76 75 72 67 66 65 65 65 66 66 65 64 62 61 62 61 60 60 60 60 60 60 60 60 61 61 63 65
84 85 85 85 85 82 79 76 75 75 74 79 77 78 78 77 75 74 75 74 74 73 73 73 74 73 73 74 74 74 73 72 72 75 75 73 74 74 74 75 77 77 76 77 77 77 80 80 79 80 80 80 75 73 68 71 70 67 64 63 63 63 62 61 61 61 60 60 59 59 60 61 62 64
84 84 85 85 79 77 76 73 69 66 65 65 73 77 78 76 75 74 74 73 74 73 72 72 72 72 72 74 74 74 74 75 75 75 74 71 73 73 72 74 76 78 77 76 74 76 79 79 78 79 78 80 79 80 80 81 78 73 67 66 65 64 63 62 61 61 60 60 59 59 58 59 61 62
81 83 84 83 81 77 73 75 67 66 64 63 61 61 63 68 74 75 74 74 74 73 72 73 73 73 71 73 74 74 75 76 75 74 73 72 71 70 68 67 73 78 76 74 73 74 77 77 75 76 78 79 79 80 80 74 72 68 66 65 65 65 64 64 64 63 61 60 59 59 58 58 59 60
81 81 83 83 83 82 82 82 80 72 65 62 62 61 61 61 60 63 71 72 72 73 72 71 72 73 72 72 74 75 75 73 73 73 72 70 69 68 68 69 68 75 77 73 71 71 76 77 76 75 76 78 79 80 75 71 70 68 67 66 65 65 65 64 64 64 64 63 62 61 60 60 60 60
80 81 81 81 82 83 77 78 80 80 78 66 60 62 61 61 61 61 59 60 69 74 72 72 71 72 73 72 73 75 74 74 71 71 70 70 70 70 69 70 71 73 75 72 69 69 73 75 74 74 76 78 79 80 75 71 68 67 66 65 65 65 65 64 64 64 63 63 62 62 61 60 60 59
81 81 80 80 80 82 82 81 81 81 79 79 77 73 73 74 71 61 58 58 57 62 71 71 70 72 74 72 73 75 75 72 70 69 67 68 68 68 68 70 70 72 75 71 70 68 72 75 75 73 76 79 78 78 75 70 68 67 66 65 65 64 64 64 63 63 63 63 62 61 60 59 58 58
81 81 81 80 80 81 80 81 79 78 78 78 77 77 78 78 79 78 78 76 75 72 73 73 73 73 74 74 74 75 75 74 72 71 70 69 69 69 69 70 71 72 75 73 70 65 71 76 74 74 76 79 78 78 74 71 68 66 65 64 65 64 63 63 63 63 62 62 61 60 60 59 57 57
81 81 80 80 79 79 79 75 68 72 77 77 76 75 76 76 76 75 72 69 72 77 78 78 78 79 75 62 67 68 70 71 71 72 73 72 70 67 66 66 72 72 78 77 73 70 71 76 75 75 78 78 76 77 78 73 69 66 65 65 65 64 62 62 62 62 62 62 61 60 59 57 56 55
81 81 80 79 77 76 77 71 61 63 66 74 75 74 73 72 73 74 78 68 63 63 60 58 57 56 56 57 56 55 53 62 66 69 67 66 70 67 65 67 69 71 76 78 77 74 71 74 73 73 75 75 75 75 76 79 73 68 65 64 63 62 62 61 61 61 62 62 61 61 60 58 56 56
79 79 76 75 77 77 77 67 61 60 65 72 73 73 73 73 73 75 79 80 73 60 57 58 58 58 59 58 57 56 56 55 58 67 64 69 71 68 68 66 69 73 74 75 78 72 71 73 73 72 73 73 75 77 78 77 75 70 67 65 63 62 62 62 61 61 61 61 61 60 59 58 57 63
79 78 74 68 70 72 71 62 59 56 63 72 73 73 73 72 73 75 77 76 76 76 75 73 71 68 64 65 69 70 61 58 60 68 69 71 68 66 67 70 69 68 71 76 78 69 70 70 73 71 68 66 72 76 75 75 75 75 75 75 74 67 64 62 60 59 59 60 60 60 58 57 57 68
77 77 77 72 61 60 59 58 53 53 55 69 73 73 72 71 71 76 76 75 74 73 72 72 72 72 74 74 75 76 77 75 71 69 71 73 72 70 71 71 70 68 70 75 79 71 72 71 69 71 69 64 63 70 74 74 75 75 74 73 73 69 68 66 63 58 57 58 58 58 58 56 57 69
78 77 78 79 65 57 56 54 52 51 51 56 69 71 72 70 62 63 71 72 69 70 70 70 70 71 72 74 76 76 76 76 78 79 77 78 77 74 72 71 72 71 73 76 70 71 67 69 66 68 67 68 69 68 70 70 72 73 72 71 70 72 74 74 72 76 63 56 56 56 56 57 55 64
78 78 78 79 69 56 54 52 51 48 50 51 63 68 55 51 55 65 68 70 70 70 69 70 70 71 71 74 74 75 75 77 78 78 78 78 77 76 76 72 69 68 68 73 66 70 67 65 65 65 66 65 66 68 65 66 69 70 70 70 70 71 73 74 75 74 75 74 69 62 63 56 56 56
76 78 77 74 56 53 49 48 47 47 48 51 61 53 51 52 50 57 67 68 67 67 68 67 67 68 70 70 71 72 73 75 75 76 75 75 75 74 75 74 74 72 73 73 73 71 68 66 67 65 64 67 62 61 60 60 63 68 67 69 70 72 75 77 74 75 75 75 75 61 58 56 55 56
77 76 77 68 48 46 44 45 47 48 50 61 51 49 50 51 52 60 66 66 66 66 66 66 67 68 69 70 70 70 72 74 72 72 72 72 74 73 74 73 73 73 72 73 73 72 70 68 68 68 67 65 60 57 56 62 63 64 63 67 69 71 74 75 75 75 75 76 76 74 70 66 63 61
71 57 47 46 48 47 46 46 48 50 49 48 47 49 50 53 65 66 67 66 66 65 65 67 68 69 69 69 70 71 71 71 71 70 71 73 73 74 73 72 72 71 72 73 73 73 71 70 69 69 68 66 62 60 59 57 60 61 63 62 62 68 71 75 76 75 75 75 73 75 72 70 66 65
52 52 51 48 49 51 53 60 64 69 66 53 51 51 53 66 68 68 67 67 66 66 68 68 67 68 70 71 72 71 69 68 68 69 69 69 70 71 70 69 69 71 73 73 74 73 72 72 70 69 67 65 62 59 58 57 57 61 63 62 64 68 71 74 76 76 75 74 73 73 76 74 71 68
67 61 63 65 58 58 57 58 59 61 57 59 60 65 66 69 71 69 68 68 68 67 67 68 69 71 71 71 69 68 68 68 69 70 68 68 68 68 68 65 65 67 70 72 74 73 73 72 71 69 63 62 61 59 59 59 56 59 63 65 65 62 71 74 74 75 75 76 75 74 77 76 74 69
74 72 59 57 65 65 66 67 69 68 67 68 68 70 71 71 71 69 64 63 67 67 68 69 69 68 68 67 68 69 69 69 69 69 67 66 66 66 66 64 64 66 67 69 70 71 71 72 70 67 64 60 58 59 60 59 58 60 62 67 69 71 72 73 74 75 76 73 71 70 75 77 76 74
74 71 70 70 70 70 69 71 70 69 68 68 69 70 70 72 72 71 71 70 69 69 68 67 66 66 67 67 68 68 68 67 67 68 66 66 65 65 65 64 65 65 64 64 66 68 70 71 70 66 63 62 61 59 58 58 62 65 66 68 68 67 71 71 69 72 75 72 68 69 70 76 79 77
71 72 72 72 72 72 71 70 70 70 69 69 69 69 65 69 72 72 71 71 71 71 67 66 66 66 66 66 67 67 66 66 67 67 64 64 66 64 64 65 66 66 64 63 65 66 69 69 67 66 64 62 61 61 60 60 59 61 63 65 68 68 70 69 68 74 71 70 67 70 73 75 78 80
69 70 70 71 72 72 73 72 72 70 70 69 69 70 70 72 70 69 70 71 68 67 67 67 67 67 66 66 66 65 65 65 66 67 67 67 66 66 65 65 65 64 64 63 64 66 68 66 65 62 59 57 57 62 62 60 59 59 62 64 65 66 67 71 70 70 68 68 72 72 73 75 76 78
70 71 70 71 72 72 73 72 71 71 71 70 70 70 70 70 71 70 71 67 66 66 67 67 66 66 66 66 66 65 65 64 65 66 66 66 66 66 66 66 65 65 65 64 64 66 66 65 62 59 56 53 53 54 58 60 58 59 57 60 64 65 66 67 70 69 66 66 69 72 71 72 73 75
71 72 72 73 72 71 71 71 71 70 71 71 71 71 70 69 70 72 69 63 65 66 67 66 66 67 66 66 65 64 65 65 65 65 65 66 66 66 65 65 65 65 65 64 65 66 66 63 61 58 54 52 52 52 55 62 57 55 60 58 60 63 65 66 68 67 68 68 67 70 71 72 74 75
72 72 72 71 71 71 71 72 71 70 69 69 69 69 70 70 70 68 67 66 66 67 67 68 67 67 67 66 65 65 66 66 66 65 65 66 65 64 64 64 65 65 64 64 65 65 64 61 59 57 54 52 52 52 53 57 60 59 52 57 58 60 64 63 65 66 68 70 68 71 74 73 75 76
72 71 70 70 70 70 70 69 69 68 69 69 70 70 69 68 69 68 67 67 67 66 66 66 67 66 65 65 66 65 65 65 64 65 65 66 65 64 64 64 64 65 65 64 65 65 63 59 58 56 55 53 52 53 54 55 56 60 56 49 56 57 59 58 60 66 71 70 69 67 69 73 72 67
70 70 71 71 70 69 68 68 68 69 69 69 70 69 67 67 67 67 67 65 65 65 65 66 65 63 65 66 66 67 66 65 65 65 65 65 65 64 64 64 63 64 63 63 63 64 63 60 58 56 56 56 56 57 58 59 60 61 62 56 48 53 55 58 60 62 66 70 71 67 65 67 67 69
69 68 69 69 69 68 68 68 69 69 69 69 66 62 65 64 64 66 65 64 62 63 64 65 65 65 65 66 66 66 64 64 65 66 65 65 64 64 62 60 64 66 64 62 62 62 62 60 61 59 61 59 59 59 57 55 54 57 58 60 54 50 51 53 56 59 61 65 67 65 64 66 66 66
69 69 69 69 68 69 70 70 69 71 70 68 67 67 65 64 64 58 61 60 60 62 64 65 66 65 66 66 67 65 65 64 65 64 64 65 65 64 63 64 65 66 64 62 62 62 65 66 64 61 59 58 57 54 52 53 53 54 57 58 61 57 54 52 52 53 54 53 59 67 67 67 67 66
68 69 67 67 68 68 69 69 68 68 67 67 66 65 65 65 66 64 65 65 64 65 66 66 66 66 66 66 66 66 65 65 65 64 64 64 65 64 64 65 65 66 66 65 66 65 65 65 63 60 58 57 56 55 52 53 54 56 56 57 58 60 62 58 56 54 54 53 52 52 57 64 67 64
68 68 68 67 67 67 67 67 67 66 65 66 66 65 65 65 65 65 65 65 65 65 65 65 65 65 65 66 66 66 66 65 65 64 64 64 64 65 65 65 65 66 67 66 66 66 66 64 63 60 57 55 55 54 53 54 54 55 55 57 57 58 58 60 63 59 58 55 53 53 54 53 55 58
68 68 68 68 67 67 67 67 67 66 66 65 65 65 65 65 64 66 66 65 65 65 64 65 65 65 65 65 65 64 65 59 62 66 65 66 66 65 65 66 65 66 66 65 64 64 64 63 64 63 59 57 56 55 55 55 55 55 55 56 56 56 57 58 58 58 58 57 54 53 53 54 55 55
MSLP
1018.58 1018.66 1018.78 1018.94 1018.90 1018.90 1018.82 1018.86 1018.86 1018.94 1019.14 1019.30 1019.50 1019.70 1020.22 1020.42 1021.10 1021.18 1020.82 1020.10 1019.50 1018.70 1018.38 1019.02 1018.26 1018.02 1018.10 1018.14 1017.90 1017.90 1017.74 1017.62 1017.74 1017.58 1017.42 1017.22 1017.14 1017.14 1017.38 1017.46 1017.42 1017.38 1017.34 1017.26 1017.14 1017.02 1016.94 1016.86 1016.78 1016.74 1016.70 1016.62 1016.54 1016.46 1016.38 1016.34 1016.26 1016.18 1016.10 1015.98 1015.78 1015.58 1015.46 1015.42 1015.42 1015.38 1015.38 1015.42 1015.46 1015.50 1015.54 1015.58 1015.70 1015.74
1018.30 1018.42 1018.54 1018.58 1018.70 1018.58 1018.70 1018.74 1018.66 1018.78 1018.98 1019.14 1019.26 1019.42 1019.54 1019.78 1020.50 1020.58 1020.94 1020.22 1019.30 1019.06 1018.30 1018.34 1018.50 1018.02 1017.98 1017.90 1017.78 1017.62 1017.54 1017.50 1017.58 1017.46 1017.34 1017.10 1016.86 1016.98 1017.14 1017.14 1017.14 1017.10 1017.02 1016.94 1016.86 1016.78 1016.66 1016.54 1016.50 1016.42 1016.38 1016.34 1016.26 1016.18 1016.10 1016.02 1015.94 1015.86 1015.78 1015.70 1015.58 1015.42 1015.26 1015.18 1015.14 1015.10 1015.06 1015.06 1015.06 1015.10 1015.14 1015.18 1015.26 1015.38
1018.14 1018.38 1018.54 1018.46 1018.54 1018.42 1018.54 1018.50 1018.42 1018.50 1018.66 1018.86 1018.94 1019.10 1019.22 1019.46 1019.74 1020.02 1020.18 1020.54 1019.02 1018.58 1018.94 1018.26 1017.78 1017.98 1017.90 1017.74 1017.62 1017.46 1017.34 1017.34 1017.38 1017.30 1017.22 1017.06 1016.98 1016.98 1016.82 1016.78 1016.70 1016.70 1016.66 1016.58 1016.54 1016.46 1016.38 1016.26 1016.18 1016.10 1016.06 1015.98 1015.90 1015.86 1015.74 1015.62 1015.58 1015.50 1015.42 1015.34 1015.26 1015.18 1015.06 1014.94 1014.86 1014.78 1014.70 1014.66 1014.66 1014.70 1014.74 1014.78 1014.86 1014.98
1017.98 1018.22 1018.38 1018.38 1018.42 1018.34 1018.38 1018.42 1018.42 1018.46 1018.46 1018.54 1018.70 1018.78 1018.94 1019.10 1019.14 1019.42 1019.78 1020.02 1019.66 1018.42 1018.34 1018.06 1017.82 1017.58 1017.58 1017.50 1017.58 1017.38 1017.18 1017.06 1017.22 1017.06 1016.94 1016.74 1016.82 1016.66 1016.30 1016.06 1016.14 1016.18 1016.18 1016.18 1016.14 1016.10 1016.06 1015.98 1015.86 1015.78 1015.70 1015.62 1015.54 1015.46 1015.34 1015.26 1015.18 1015.10 1015.02 1014.94 1014.90 1014.82 1014.74 1014.66 1014.54 1014.46 1014.38 1014.30 1014.26 1014.30 1014.34 1014.38 1014.46 1014.58
1017.90 1018.10 1018.22 1018.14 1018.06 1017.98 1018.22 1018.26 1018.22 1018.22 1018.26 1018.30 1018.46 1018.54 1018.66 1018.82 1018.78 1019.02 1019.34 1019.58 1019.26 1018.30 1017.70 1017.82 1017.74 1017.34 1017.34 1017.34 1017.06 1017.18 1017.02 1016.98 1016.82 1016.66 1016.42 1016.38 1016.38 1016.22 1015.98 1015.66 1015.54 1015.66 1015.66 1015.70 1015.74 1015.74 1015.70 1015.62 1015.54 1015.42 1015.34 1015.26 1015.18 1015.06 1014.94 1014.86 1014.82 1014.74 1014.62 1014.54 1014.50 1014.42 1014.34 1014.30 1014.26 1014.14 1014.02 1013.98 1013.94 1013.90 1013.94 1013.98 1014.06 1014.14
1017.82 1017.90 1018.06 1017.98 1017.86 1017.66 1017.86 1017.94 1018.02 1017.98 1017.98 1018.10 1018.14 1018.18 1018.26 1018.42 1018.42 1018.26 1018.86 1018.94 1018.98 1018.82 1017.98 1017.74 1017.14 1017.22 1016.98 1017.26 1016.66 1017.10 1017.10 1016.94 1016.74 1016.58 1016.42 1016.14 1015.98 1015.98 1015.82 1015.54 1015.18 1015.18 1015.30 1015.38 1015.38 1015.38 1015.34 1015.26 1015.18 1015.10 1014.98 1014.86 1014.78 1014.70 1014.62 1014.54 1014.42 1014.34 1014.26 1014.14 1014.10 1014.02 1013.94 1013.86 1013.86 1013.78 1013.70 1013.62 1013.54 1013.50 1013.50 1013.54 1013.58 1013.66
1017.62 1017.74 1017.82 1017.82 1017.70 1017.54 1017.66 1017.74 1017.74 1017.66 1017.78 1017.74 1017.86 1017.94 1017.94 1018.14 1018.10 1018.02 1018.18 1018.62 1018.78 1018.50 1018.14 1017.62 1017.46 1017.26 1017.02 1017.06 1016.90 1016.70 1016.74 1016.62 1016.46 1016.58 1016.38 1016.02 1015.74 1015.62 1015.58 1015.42 1015.06 1014.98 1015.06 1015.10 1015.10 1015.10 1015.06 1014.98 1014.86 1014.78 1014.66 1014.50 1014.38 1014.30 1014.22 1014.14 1014.06 1013.94 1013.82 1013.70 1013.62 1013.58 1013.50 1013.42 1013.38 1013.34 1013.30 1013.22 1013.14 1013.10 1013.06 1013.10 1013.14 1013.18
1017.54 1017.62 1017.66 1017.54 1017.46 1017.38 1017.58 1017.58 1017.58 1017.50 1017.50 1017.58 1017.62 1017.78 1017.82 1017.90 1017.94 1017.90 1017.94 1018.02 1018.34 1018.18 1018.18 1017.54 1017.58 1017.18 1017.22 1016.82 1016.58 1016.42 1016.42 1016.38 1016.22 1016.18 1015.90 1015.70 1015.74 1015.50 1015.30 1015.10 1014.90 1014.62 1014.70 1014.74 1014.70 1014.66 1014.62 1014.58 1014.50 1014.42 1014.26 1014.14 1014.02 1013.90 1013.82 1013.74 1013.66 1013.54 1013.38 1013.26 1013.18 1013.10 1013.02 1012.98 1012.94 1012.86 1012.82 1012.78 1012.74 1012.62 1012.62 1012.62 1012.66 1012.74
1017.18 1017.22 1017.22 1017.18 1017.14 1017.18 1017.42 1017.42 1017.42 1017.30 1017.38 1017.30 1017.34 1017.50 1017.46 1017.54 1017.54 1017.54 1017.62 1017.70 1017.74 1017.98 1017.98 1017.46 1016.90 1016.86 1016.90 1016.58 1016.54 1016.30 1016.38 1016.14 1015.90 1015.70 1015.62 1015.54 1015.58 1015.46 1015.10 1014.74 1014.38 1014.30 1014.26 1014.22 1014.14 1014.06 1014.02 1014.02 1013.98 1013.90 1013.82 1013.70 1013.58 1013.50 1013.34 1013.22 1013.14 1013.06 1012.98 1012.82 1012.70 1012.58 1012.54 1012.46 1012.38 1012.38 1012.30 1012.30 1012.30 1012.26 1012.18 1012.18 1012.22 1012.26
1016.70 1016.78 1016.82 1016.74 1016.82 1016.98 1017.22 1017.18 1017.10 1017.06 1017.10 1017.06 1017.18 1017.22 1017.26 1017.26 1017.34 1017.42 1017.42 1017.46 1017.54 1017.62 1017.58 1017.38 1017.06 1016.66 1016.78 1016.42 1016.34 1016.10 1016.02 1016.22 1016.06 1015.78 1015.50 1015.34 1015.22 1015.22 1015.06 1014.58 1014.22 1014.02 1013.86 1013.70 1013.50 1013.42 1013.42 1013.30 1013.34 1013.34 1013.30 1013.18 1013.10 1013.02 1012.90 1012.74 1012.62 1012.58 1012.46 1012.34 1012.22 1012.10 1012.02 1011.94 1011.90 1011.82 1011.78 1011.78 1011.74 1011.78 1011.74 1011.70 1011.74 1011.82
1016.14 1016.18 1016.26 1016.38 1016.42 1016.62 1016.70 1016.78 1016.78 1016.70 1016.78 1016.78 1016.82 1016.86 1016.98 1016.98 1017.18 1017.26 1017.26 1017.22 1017.26 1017.30 1017.26 1017.02 1016.78 1016.70 1016.34 1016.26 1016.30 1015.78 1015.58 1015.62 1015.90 1016.14 1015.90 1015.50 1014.86 1014.78 1014.90 1014.90 1014.30 1013.90 1013.62 1013.38 1013.26 1013.10 1012.98 1012.90 1012.78 1012.54 1012.50 1012.54 1012.54 1012.46 1012.34 1012.18 1012.10 1012.02 1011.90 1011.78 1011.66 1011.58 1011.46 1011.38 1011.34 1011.30 1011.26 1011.26 1011.22 1011.22 1011.26 1011.26 1011.18 1011.26
1015.78 1015.74 1015.70 1015.74 1015.82 1016.02 1016.10 1016.22 1016.22 1016.30 1016.46 1016.38 1016.58 1016.46 1016.62 1016.78 1016.98 1017.10 1017.02 1016.98 1016.94 1016.94 1016.90 1016.86 1016.74 1016.46 1016.38 1016.06 1015.74 1015.54 1015.66 1015.86 1015.70 1015.38 1015.38 1015.58 1015.30 1014.94 1014.58 1014.42 1014.42 1014.02 1013.70 1013.38 1012.78 1012.42 1012.26 1012.06 1011.94 1011.98 1011.98 1011.94 1011.86 1011.78 1011.66 1011.58 1011.54 1011.38 1011.14 1011.10 1011.06 1010.98 1010.90 1010.82 1010.78 1010.74 1010.74 1010.74 1010.74 1010.70 1010.70 1010.78 1010.74 1010.70
1015.54 1015.42 1015.30 1015.30 1015.38 1015.54 1015.66 1015.78 1015.90 1015.94 1015.98 1016.18 1016.38 1016.34 1016.38 1016.58 1016.70 1016.86 1016.86 1016.94 1016.78 1016.78 1016.74 1016.62 1016.34 1016.34 1016.18 1015.86 1015.82 1015.78 1015.74 1015.78 1015.66 1015.18 1015.18 1015.18 1014.86 1014.58 1014.42 1014.02 1013.70 1013.58 1013.54 1013.26 1012.94 1012.62 1012.02 1011.82 1011.74 1011.50 1011.34 1011.14 1011.10 1010.98 1010.98 1010.78 1010.58 1010.38 1010.38 1010.46 1010.50 1010.46 1010.38 1010.30 1010.22 1010.18 1010.14 1010.18 1010.18 1010.22 1010.22 1010.22 1010.26 1010.22
1015.30 1015.18 1015.02 1014.90 1015.06 1015.30 1015.46 1015.62 1015.74 1015.90 1016.02 1016.18 1016.18 1016.10 1016.10 1016.22 1016.38 1016.50 1016.58 1016.62 1016.58 1016.54 1016.58 1016.42 1016.30 1016.26 1016.02 1015.66 1015.46 1015.42 1015.18 1014.94 1014.74 1014.82 1014.86 1015.02 1014.58 1014.38 1014.22 1013.82 1013.38 1013.02 1013.02 1012.94 1012.82 1012.34 1011.82 1011.62 1011.30 1011.06 1010.90 1010.54 1010.54 1010.38 1010.14 1009.82 1009.58 1009.62 1009.78 1009.86 1009.86 1009.86 1009.82 1009.74 1009.70 1009.62 1009.58 1009.58 1009.58 1009.66 1009.70 1009.70 1009.70 1009.70
1015.30 1014.98 1014.82 1014.82 1014.94 1015.18 1015.34 1015.42 1015.54 1015.70 1015.86 1015.98 1016.10 1016.14 1016.10 1016.06 1016.14 1016.14 1016.26 1016.22 1016.18 1016.30 1016.30 1016.06 1015.94 1015.82 1015.74 1015.46 1015.14 1015.06 1014.82 1014.58 1014.62 1014.62 1014.66 1014.70 1014.62 1014.66 1014.62 1014.34 1013.22 1012.66 1012.78 1012.82 1012.62 1012.18 1011.58 1011.42 1011.34 1010.82 1010.42 1010.14 1009.94 1009.74 1009.46 1009.34 1009.30 1009.34 1009.38 1009.34 1009.30 1009.22 1009.22 1009.14 1009.06 1009.02 1008.98 1008.94 1008.94 1008.98 1009.06 1009.14 1009.18 1009.22
1014.98 1014.94 1014.78 1014.66 1014.66 1014.74 1014.78 1014.78 1014.90 1015.22 1015.42 1015.62 1015.70 1015.78 1015.86 1015.94 1016.02 1016.10 1016.10 1016.14 1016.10 1015.98 1015.98 1015.94 1015.66 1015.54 1015.42 1015.18 1014.98 1014.78 1014.62 1014.54 1014.50 1014.50 1014.54 1014.58 1014.66 1014.62 1014.38 1013.98 1013.70 1012.62 1012.46 1012.62 1012.50 1011.90 1011.26 1011.14 1010.86 1010.46 1010.10 1009.74 1009.46 1009.02 1008.78 1008.70 1008.74 1008.78 1008.74 1008.70 1008.66 1008.58 1008.50 1008.46 1008.42 1008.34 1008.30 1008.26 1008.26 1008.30 1008.38 1008.50 1008.58 1008.66
1014.78 1014.74 1014.70 1014.62 1014.42 1014.26 1014.42 1014.58 1014.54 1014.54 1014.66 1014.94 1015.18 1015.26 1015.50 1015.70 1015.82 1015.86 1015.94 1015.94 1015.90 1015.62 1015.70 1015.66 1015.50 1015.30 1015.10 1015.02 1014.74 1014.42 1014.38 1014.34 1014.62 1014.58 1014.62 1014.46 1014.26 1014.02 1013.90 1013.54 1013.10 1012.62 1012.34 1012.54 1012.34 1011.82 1010.94 1010.82 1010.50 1010.10 1009.58 1009.30 1008.82 1008.38 1008.02 1008.02 1008.14 1008.14 1008.10 1008.06 1007.98 1007.90 1007.78 1007.70 1007.66 1007.62 1007.58 1007.58 1007.58 1007.58 1007.66 1007.78 1007.94 1008.02
1014.38 1014.34 1014.42 1014.42 1014.30 1014.02 1014.02 1014.06 1014.06 1014.18 1014.34 1014.38 1014.58 1014.98 1015.06 1014.98 1014.90 1015.18 1015.34 1015.38 1015.50 1015.62 1015.50 1015.34 1015.34 1014.86 1014.66 1014.70 1014.30 1014.06 1014.06 1014.30 1014.50 1014.54 1014.66 1014.38 1014.10 1013.90 1013.62 1013.22 1013.02 1012.42 1012.22 1012.34 1011.90 1011.42 1010.66 1010.34 1009.94 1009.54 1009.02 1008.54 1008.14 1007.86 1007.62 1007.46 1007.46 1007.46 1007.42 1007.30 1007.26 1007.18 1007.06 1006.94 1006.90 1006.86 1006.86 1006.82 1006.82 1006.90 1006.94 1007.06 1007.26 1007.38
1014.02 1014.02 1013.98 1014.02 1013.98 1013.82 1013.86 1013.78 1013.82 1014.06 1014.18 1014.34 1014.38 1014.38 1014.26 1014.18 1014.06 1014.06 1014.22 1014.46 1014.66 1014.94 1014.98 1014.94 1014.78 1014.54 1014.30 1014.14 1013.94 1013.78 1013.74 1013.90 1014.02 1014.02 1014.06 1014.02 1013.86 1013.58 1013.26 1012.94 1012.50 1012.02 1011.54 1011.42 1011.66 1011.38 1010.14 1009.62 1009.50 1008.86 1008.42 1007.90 1007.54 1007.18 1006.94 1006.74 1006.74 1006.78 1006.74 1006.66 1006.58 1006.46 1006.30 1006.18 1006.10 1006.06 1006.06 1006.06 1006.06 1006.14 1006.22 1006.38 1006.54 1006.74
1013.62 1013.58 1013.62 1013.66 1013.70 1013.66 1013.70 1013.70 1013.86 1013.94 1014.02 1014.18 1014.30 1014.26 1014.14 1014.06 1014.02 1014.14 1013.98 1013.86 1013.82 1013.90 1013.94 1013.98 1013.94 1013.78 1013.82 1014.18 1014.26 1014.22 1014.14 1014.02 1013.90 1013.78 1013.58 1013.42 1013.38 1013.42 1013.18 1012.82 1011.90 1011.46 1010.46 1010.38 1010.58 1010.18 1009.38 1009.02 1008.94 1008.22 1007.82 1007.50 1007.10 1006.70 1006.34 1005.98 1005.98 1006.06 1006.10 1005.98 1005.82 1005.70 1005.50 1005.34 1005.22 1005.22 1005.22 1005.22 1005.26 1005.38 1005.50 1005.70 1005.86 1006.10
1013.26 1013.26 1013.26 1013.38 1013.58 1013.62 1013.62 1013.62 1013.94 1014.06 1014.26 1014.22 1014.10 1014.06 1014.10 1014.26 1014.26 1013.94 1013.38 1013.30 1013.42 1013.58 1013.90 1014.06 1014.14 1014.14 1014.06 1013.98 1013.94 1013.94 1014.06 1014.18 1014.14 1014.10 1014.02 1013.74 1013.18 1013.02 1012.78 1012.10 1011.62 1011.02 1010.34 1009.78 1009.62 1009.38 1009.02 1008.82 1008.74 1008.30 1007.62 1007.14 1006.66 1006.38 1005.90 1005.46 1005.18 1005.22 1005.30 1005.26 1005.10 1004.94 1004.82 1004.58 1004.42 1004.38 1004.34 1004.38 1004.46 1004.58 1004.74 1004.94 1005.22 1005.50
1013.06 1013.06 1013.26 1013.30 1013.30 1013.30 1013.26 1013.46 1013.74 1014.02 1014.22 1014.18 1013.94 1013.94 1013.98 1013.94 1013.78 1013.46 1013.02 1012.82 1013.14 1013.42 1013.58 1013.74 1013.82 1013.82 1013.78 1013.70 1013.62 1013.62 1013.70 1013.82 1014.06 1014.02 1013.86 1012.98 1012.58 1012.34 1012.10 1011.90 1011.22 1010.42 1010.10 1009.74 1009.26 1009.30 1008.86 1008.54 1008.50 1008.18 1007.14 1006.74 1006.10 1005.58 1005.02 1004.74 1004.62 1004.70 1004.62 1004.46 1004.18 1003.90 1003.74 1003.62 1003.46 1003.38 1003.42 1003.46 1003.58 1003.74 1003.98 1004.22 1004.66 1004.98
1012.86 1012.90 1013.02 1013.30 1013.34 1013.26 1013.14 1013.46 1013.78 1014.06 1014.02 1013.86 1013.70 1013.62 1013.70 1013.66 1013.54 1013.18 1012.94 1013.06 1013.02 1013.02 1013.26 1013.30 1013.34 1013.42 1013.38 1013.34 1013.18 1013.02 1013.10 1013.14 1013.30 1013.22 1012.94 1012.50 1012.46 1012.30 1011.86 1011.26 1010.86 1010.58 1009.90 1009.18 1008.90 1009.34 1008.62 1008.58 1007.94 1008.14 1007.50 1006.78 1005.62 1005.38 1004.82 1004.46 1004.22 1004.06 1003.78 1003.42 1003.18 1002.90 1002.86 1002.62 1002.50 1002.42 1002.42 1002.54 1002.70 1002.90 1003.14 1003.50 1004.06 1004.18
1012.70 1012.70 1012.70 1012.78 1013.10 1013.26 1013.38 1013.62 1013.90 1014.02 1014.02 1013.78 1013.46 1013.34 1013.50 1013.62 1013.42 1012.86 1012.94 1013.06 1013.18 1013.30 1013.38 1013.34 1013.26 1013.10 1012.74 1012.58 1012.34 1012.10 1011.98 1012.06 1012.14 1012.30 1012.14 1011.82 1011.62 1011.50 1011.06 1010.66 1010.46 1010.30 1009.70 1008.98 1008.74 1008.94 1008.34 1008.26 1007.82 1007.66 1007.54 1007.22 1005.82 1004.98 1004.54 1003.98 1003.66 1003.38 1003.18 1002.86 1002.70 1002.14 1001.98 1001.74 1001.50 1001.42 1001.42 1001.58 1001.78 1002.02 1002.30 1002.70 1003.22 1003.38
1012.50 1012.50 1012.42 1012.22 1012.54 1012.98 1013.22 1013.50 1013.82 1013.94 1013.98 1013.98 1013.66 1013.38 1013.26 1013.46 1013.78 1013.78 1013.46 1013.30 1013.42 1013.38 1013.38 1013.30 1013.18 1012.86 1012.54 1012.26 1011.86 1011.70 1011.70 1011.58 1011.30 1011.10 1010.98 1010.86 1010.78 1010.78 1010.70 1010.42 1010.06 1009.62 1009.14 1008.82 1008.82 1008.98 1008.70 1008.34 1007.82 1007.38 1007.02 1006.62 1005.54 1004.82 1003.94 1003.54 1003.18 1002.98 1002.70 1002.46 1002.10 1001.58 1001.18 1000.70 1000.34 999.98 1000.10 1000.50 1000.82 1001.14 1001.50 1001.82 1002.34 1002.54
1012.18 1012.14 1012.10 1012.14 1012.34 1012.74 1013.14 1013.42 1013.70 1013.90 1014.10 1014.26 1014.06 1013.46 1013.58 1013.78 1013.90 1013.86 1013.66 1013.50 1013.38 1013.26 1013.22 1013.06 1012.86 1012.66 1012.46 1012.10 1011.82 1011.62 1011.38 1011.02 1010.82 1010.82 1010.74 1010.74 1010.66 1010.46 1010.26 1010.14 1010.06 1009.74 1009.18 1008.66 1008.70 1008.74 1008.62 1008.18 1007.66 1007.18 1006.70 1006.38 1005.10 1004.82 1004.06 1002.98 1002.34 1002.62 1002.18 1001.82 1001.54 1000.98 1000.58 1000.02 999.66 999.34 999.18 999.18 999.66 1000.18 1000.54 1001.02 1001.54 1001.94
1012.26 1011.98 1011.98 1012.22 1012.70 1012.98 1013.26 1013.58 1013.90 1014.14 1014.26 1014.34 1013.90 1013.78 1013.94 1014.22 1014.46 1014.38 1013.78 1013.50 1013.46 1013.30 1013.10 1013.06 1012.94 1012.70 1012.38 1012.18 1011.90 1011.62 1011.30 1010.98 1010.82 1010.90 1010.94 1010.82 1010.54 1010.22 1009.90 1009.62 1009.38 1009.14 1008.62 1008.34 1008.22 1008.10 1008.06 1007.58 1006.98 1006.78 1006.30 1005.70 1005.02 1004.38 1003.98 1003.58 1001.66 1001.54 1001.78 1001.26 1000.74 1000.18 999.62 999.14 998.90 998.58 998.42 998.42 998.42 998.86 999.74 1000.38 1000.98 1001.34
1012.14 1012.06 1012.06 1012.54 1013.10 1013.26 1013.42 1013.74 1014.06 1014.10 1014.14 1013.66 1013.74 1014.02 1014.22 1014.38 1014.50 1014.06 1013.50 1013.46 1013.18 1013.10 1013.02 1012.94 1012.74 1012.54 1012.26 1012.02 1011.86 1011.66 1011.34 1011.14 1011.22 1011.38 1011.10 1010.70 1010.22 1009.86 1009.50 1009.22 1009.02 1008.70 1008.38 1008.06 1007.70 1007.46 1007.34 1007.18 1006.46 1005.90 1005.74 1005.34 1004.90 1004.38 1003.26 1002.18 1002.14 1001.26 1001.02 1000.26 1000.06 999.54 998.94 998.46 998.02 997.82 997.70 997.62 997.62 998.10 998.94 999.70 1000.30 1000.90
1012.74 1013.14 1013.18 1013.18 1013.26 1013.38 1013.62 1013.90 1014.10 1014.18 1014.06 1014.02 1014.10 1014.18 1014.30 1014.30 1013.46 1013.26 1013.10 1012.94 1012.90 1012.94 1012.82 1012.62 1012.38 1012.14 1011.98 1011.82 1011.62 1011.42 1011.34 1011.34 1011.38 1011.18 1010.66 1010.14 1009.78 1009.42 1009.14 1008.86 1008.66 1008.38 1008.06 1007.54 1007.22 1006.86 1006.70 1006.50 1005.98 1005.34 1005.02 1004.86 1004.70 1003.66 1003.22 1001.86 1001.26 1000.54 1000.22 1000.10 999.42 998.74 998.22 997.50 997.18 997.02 996.94 996.98 997.30 997.26 997.62 998.18 999.14 999.78
1013.46 1013.50 1013.34 1013.30 1013.26 1013.38 1013.70 1013.62 1013.38 1012.94 1013.06 1013.70 1013.90 1013.98 1013.94 1013.22 1012.82 1012.82 1012.74 1012.74 1012.74 1012.66 1012.34 1012.22 1012.22 1011.98 1011.66 1011.42 1011.22 1011.42 1011.62 1011.58 1011.18 1010.78 1010.50 1010.10 1009.66 1009.30 1009.02 1008.82 1008.46 1008.06 1007.54 1007.10 1006.74 1006.38 1006.06 1005.70 1005.38 1004.94 1004.62 1004.38 1004.10 1003.42 1002.34 1001.62 1000.34 999.58 999.22 999.10 998.38 997.66 997.18 996.74 996.30 996.14 996.26 996.34 996.58 996.74 996.58 997.06 997.82 998.70
1012.82 1013.14 1012.98 1012.90 1013.14 1013.10 1013.30 1013.38 1013.14 1013.14 1013.38 1013.42 1013.58 1013.18 1013.10 1012.62 1012.34 1012.38 1012.54 1012.54 1012.50 1012.46 1012.38 1012.22 1011.98 1011.70 1011.54 1011.58 1011.70 1011.58 1011.26 1011.06 1010.74 1010.38 1010.18 1009.94 1009.54 1009.30 1009.02 1008.86 1008.34 1007.74 1007.18 1006.78 1006.34 1006.02 1005.62 1005.26 1004.98 1004.78 1004.58 1003.98 1003.34 1002.74 1001.54 1000.70 999.98 998.98 998.22 997.78 997.54 997.54 996.10 995.66 995.62 995.54 995.54 995.62 995.86 996.18 996.06 996.38 997.06 997.86
1011.90 1012.30 1012.90 1013.10 1012.98 1012.94 1012.90 1012.74 1012.58 1012.66 1012.74 1012.58 1012.50 1012.26 1012.14 1012.18 1012.26 1012.46 1012.82 1012.94 1012.78 1012.66 1012.42 1012.18 1012.02 1011.98 1011.94 1011.82 1011.50 1011.18 1010.98 1010.66 1010.38 1010.22 1010.14 1009.94 1009.66 1009.30 1008.98 1008.62 1008.02 1007.46 1007.02 1006.62 1006.18 1005.74 1005.38 1004.90 1004.62 1004.42 1004.26 1003.82 1002.90 1001.30 1000.30 999.58 998.86 998.06 997.50 996.78 996.30 995.82 995.58 995.38 995.10 995.02 995.02 995.30 995.78 996.14 995.70 995.58 996.18 997.02
1011.62 1011.98 1012.22 1012.14 1012.06 1011.94 1011.90 1011.70 1011.74 1012.06 1012.34 1012.38 1012.22 1012.22 1012.18 1011.82 1011.74 1011.94 1012.10 1012.06 1011.98 1011.90 1011.98 1012.14 1012.14 1011.98 1011.74 1011.50 1011.26 1011.02 1010.78 1010.54 1010.38 1010.14 1010.02 1009.78 1009.62 1009.18 1008.82 1008.42 1007.66 1007.22 1006.94 1006.54 1006.10 1005.58 1004.94 1004.30 1003.98 1003.86 1003.54 1002.98 1002.34 1001.18 999.86 998.70 997.62 997.02 996.58 996.02 995.78 995.54 995.02 994.98 995.22 994.90 994.74 995.30 995.82 996.02 995.78 995.38 995.30 996.06
1011.70 1011.58 1011.54 1011.46 1011.30 1011.30 1011.42 1011.50 1011.62 1011.66 1011.74 1011.94 1012.06 1011.98 1012.22 1012.30 1011.94 1011.70 1011.82 1011.90 1011.74 1011.78 1012.18 1012.14 1011.98 1011.74 1011.58 1011.42 1011.14 1010.90 1010.66 1010.42 1010.22 1009.98 1009.90 1009.62 1009.22 1009.02 1008.54 1007.82 1007.30 1006.98 1006.82 1006.38 1005.82 1005.26 1004.54 1004.02 1003.74 1003.14 1002.62 1002.14 1001.50 1000.54 999.78 998.82 998.02 997.34 996.90 996.34 995.70 995.18 994.82 995.06 995.02 994.50 994.62 994.90 995.34 995.34 994.94 995.42 995.22 995.42
1011.86 1011.66 1011.42 1011.02 1010.82 1010.86 1010.98 1011.10 1011.30 1011.54 1011.58 1011.62 1011.78 1011.70 1011.66 1011.46 1011.70 1011.98 1012.10 1011.78 1012.02 1012.14 1012.02 1011.82 1011.70 1011.54 1011.38 1011.22 1011.06 1010.86 1010.66 1010.42 1010.14 1009.78 1009.42 1009.14 1008.86 1008.54 1008.14 1007.74 1007.26 1006.94 1006.58 1006.18 1005.74 1005.10 1004.50 1004.14 1003.74 1003.02 1002.18 1001.38 1000.54 999.58 999.22 998.90 998.54 998.02 997.02 996.14 995.70 995.54 995.22 994.66 994.54 994.46 994.70 994.74 994.18 994.54 995.02 995.22 995.38 995.30
1011.50 1011.14 1011.02 1010.86 1010.82 1010.90 1010.94 1010.90 1010.98 1011.18 1011.30 1011.42 1011.58 1011.66 1011.70 1011.58 1011.42 1011.62 1011.54 1012.02 1012.38 1012.18 1011.94 1011.66 1011.50 1011.42 1011.26 1011.10 1010.90 1010.78 1010.54 1010.34 1009.94 1009.54 1009.26 1008.94 1008.62 1008.30 1007.90 1007.50 1007.18 1006.82 1006.46 1006.10 1005.62 1005.02 1004.58 1004.34 1004.02 1003.58 1002.94 1002.06 1001.26 1000.06 998.82 998.58 998.50 998.34 997.86 996.94 996.06 995.58 995.18 994.82 994.34 994.46 994.86 994.98 994.42 994.42 995.10 995.30 995.38 995.38
1011.14 1010.90 1010.82 1010.70 1010.70 1010.82 1010.94 1010.94 1011.14 1011.34 1011.38 1011.34 1011.46 1011.54 1011.66 1011.82 1011.54 1011.30 1011.74 1012.50 1012.38 1012.10 1011.78 1011.78 1011.50 1011.22 1011.10 1010.94 1010.82 1010.58 1010.26 1010.02 1009.70 1009.46 1009.14 1008.74 1008.46 1008.14 1007.82 1007.34 1007.02 1006.66 1006.34 1005.94 1005.46 1004.94 1004.58 1004.38 1004.18 1003.98 1003.54 1002.58 1001.66 1000.74 999.62 998.58 998.42 998.38 998.10 997.66 996.66 996.02 995.46 994.78 994.50 994.62 994.50 994.54 994.86 994.74 994.74 995.02 995.18 995.10
1010.54 1010.50 1010.66 1010.66 1010.66 1010.74 1010.82 1010.82 1010.86 1011.22 1011.50 1011.74 1011.90 1011.86 1011.74 1011.54 1011.62 1011.94 1012.06 1012.18 1011.94 1011.66 1011.50 1011.34 1011.14 1011.06 1010.94 1010.86 1010.70 1010.34 1010.10 1009.78 1009.54 1009.26 1008.94 1008.66 1008.42 1008.14 1007.82 1007.46 1006.94 1006.54 1006.26 1005.86 1005.38 1004.86 1004.58 1004.54 1004.38 1004.10 1003.82 1003.10 1001.98 1000.90 999.82 998.78 998.26 998.06 998.10 997.78 997.22 996.42 995.58 995.30 994.94 994.62 994.34 994.22 994.34 994.10 994.06 994.66 994.70 994.70
1010.58 1010.50 1010.70 1010.74 1010.78 1010.94 1011.02 1011.10 1011.34 1011.50 1011.54 1011.70 1011.62 1011.50 1011.66 1011.82 1011.78 1011.74 1011.82 1011.78 1011.74 1011.78 1011.58 1011.38 1011.10 1011.06 1011.14 1010.86 1010.50 1010.26 1009.98 1009.74 1009.54 1009.18 1008.90 1008.58 1008.38 1008.14 1007.86 1007.42 1007.06 1006.58 1006.18 1005.66 1005.22 1004.78 1004.54 1004.50 1004.34 1004.18 1003.86 1003.30 1002.58 1001.70 1000.98 999.94 998.98 998.02 997.90 997.90 997.46 996.86 996.34 995.98 995.46 994.70 994.02 994.18 994.18 994.30 994.50 994.34 994.30 994.38
1010.66 1010.70 1010.66 1010.70 1010.94 1011.18 1011.34 1011.42 1011.54 1011.58 1011.66 1011.62 1011.66 1011.82 1011.94 1011.86 1011.82 1011.86 1011.74 1011.74 1011.78 1011.86 1011.70 1011.34 1011.22 1011.22 1010.90 1010.54 1010.38 1010.06 1009.82 1009.66 1009.38 1009.06 1008.78 1008.58 1008.30 1008.10 1007.74 1007.50 1007.18 1006.58 1006.14 1005.82 1005.42 1004.90 1004.54 1004.46 1004.42 1004.14 1003.74 1003.38 1002.74 1001.90 1000.98 1000.10 999.14 998.34 997.78 997.66 997.46 997.18 997.02 996.30 995.74 995.26 994.50 993.98 994.10 994.54 994.94 994.70 995.02 995.02
1010.90 1010.98 1010.94 1010.94 1011.10 1011.30 1011.50 1011.50 1011.46 1011.50 1011.62 1011.78 1012.10 1012.22 1012.26 1012.22 1012.18 1011.90 1011.94 1012.10 1012.22 1012.02 1011.58 1011.26 1011.10 1010.98 1010.70 1010.50 1010.30 1010.06 1009.86 1009.58 1009.30 1009.02 1008.78 1008.54 1008.26 1007.98 1007.74 1007.46 1006.82 1006.26 1006.06 1005.78 1005.58 1005.10 1004.62 1004.54 1004.30 1003.82 1003.42 1002.94 1002.26 1001.42 1000.54 999.90 999.58 998.90 998.30 997.62 997.26 997.18 997.10 996.90 996.54 995.66 995.22 994.82 994.58 994.82 995.14 994.94 994.94 995.34
1010.86 1010.90 1010.94 1011.10 1011.26 1011.22 1011.22 1011.22 1011.46 1011.38 1011.46 1011.86 1011.94 1011.86 1011.98 1012.14 1012.06 1012.46 1012.46 1012.42 1012.30 1011.98 1011.58 1011.14 1010.94 1010.82 1010.58 1010.38 1010.10 1009.98 1009.82 1009.58 1009.26 1009.06 1008.82 1008.54 1008.14 1007.78 1007.42 1007.02 1006.62 1006.22 1006.06 1005.74 1005.46 1005.18 1004.58 1004.18 1003.94 1003.74 1003.34 1002.90 1002.42 1002.10 1001.70 1001.18 1000.54 999.74 998.82 998.22 997.50 997.06 996.94 996.94 996.78 996.42 995.86 995.62 995.30 994.54 994.62 994.90 994.94 995.30
1010.86 1010.90 1011.14 1011.18 1011.26 1011.38 1011.38 1011.50 1011.74 1011.86 1011.90 1011.82 1011.90 1012.02 1012.02 1011.78 1011.66 1011.86 1011.62 1011.46 1011.58 1011.42 1011.18 1011.06 1010.90 1010.70 1010.54 1010.30 1010.14 1009.98 1009.74 1009.38 1009.22 1009.10 1008.82 1008.46 1008.14 1007.82 1007.38 1006.98 1006.70 1006.30 1005.90 1005.50 1005.02 1004.86 1004.54 1004.18 1003.90 1003.74 1003.46 1003.10 1002.86 1002.62 1002.26 1001.42 1000.74 1000.06 999.34 998.74 998.22 997.58 997.02 996.74 996.66 996.38 995.94 995.82 995.94 996.14 995.66 994.98 994.66 995.22
1010.82 1010.98 1010.98 1011.18 1011.46 1011.66 1011.90 1011.82 1011.90 1012.06 1012.06 1011.90 1011.86 1011.98 1011.86 1011.66 1011.58 1011.54 1011.54 1011.50 1011.42 1011.26 1011.22 1011.14 1010.90 1010.74 1010.54 1010.34 1010.14 1009.90 1009.62 1009.46 1009.38 1009.10 1008.70 1008.38 1008.10 1007.78 1007.42 1006.98 1006.62 1006.22 1005.78 1005.30 1004.94 1004.62 1004.38 1004.22 1003.90 1003.78 1003.74 1003.58 1003.22 1002.94 1002.46 1001.62 1000.98 1000.54 1000.06 999.46 998.82 998.14 997.66 997.06 996.50 996.02 995.66 995.74 995.98 995.74 995.34 995.30 994.74 994.22
1010.86 1010.90 1010.94 1011.14 1011.42 1011.58 1011.70 1011.86 1011.98 1012.06 1011.98 1011.90 1011.82 1011.70 1011.70 1011.70 1011.58 1011.42 1011.38 1011.50 1011.42 1011.38 1011.30 1011.10 1010.90 1010.74 1010.58 1010.38 1010.22 1009.98 1009.70 1009.62 1009.26 1008.78 1008.54 1008.22 1007.94 1007.66 1007.30 1006.94 1006.58 1006.18 1005.74 1005.54 1005.30 1004.78 1004.50 1004.30 1003.82 1003.66 1003.74 1003.62 1003.50 1003.26 1002.78 1001.98 1001.38 1000.86 1000.38 999.78 999.38 998.90 998.38 997.82 997.26 996.82 996.54 996.42 996.66 996.38 995.82 995.54 995.42 995.22
Wind_Speed
4 5 6 5 5 4 4 4 4 3 3 4 4 4 5 6 7 7 7 7 8 5 6 8 4 4 6 6 6 6 7 5 5 7 7 6 7 5 7 6 8 9 10 10 11 11 11 11 11 12 13 13 14 15 15 15 15 15 16 16 16 17 17 16 15 16 17 19 20 20 21 22 21 24
5 5 5 5 6 5 5 5 5 4 4 5 5 5 5 5 7 7 8 9 7 9 7 6 6 5 6 6 7 7 7 5 5 8 7 7 7 2 5 8 11 11 11 11 11 11 12 11 10 10 11 12 13 14 15 15 15 16 15 16 17 17 16 16 16 16 17 18 19 20 21 21 21 21
5 5 6 6 6 5 6 5 5 4 5 4 4 5 5 6 7 8 8 10 7 6 8 7 7 8 8 7 8 7 7 7 8 8 8 8 8 6 10 12 13 13 13 12 12 12 12 12 11 11 12 12 13 14 15 15 15 16 16 16 17 18 17 16 16 17 18 18 19 19 20 21 21 21
4 5 6 6 6 6 5 6 5 5 4 5 5 5 5 6 6 7 8 10 10 8 9 8 8 9 9 8 8 8 7 6 7 8 8 9 9 9 9 12 16 15 14 13 13 12 12 12 12 13 12 12 13 15 15 14 14 15 16 16 16 17 18 16 16 17 18 18 19 19 20 21 21 21
5 5 6 7 7 7 7 6 6 6 6 6 6 6 6 6 6 6 8 9 10 8 7 8 8 8 9 9 8 9 8 7 7 8 9 9 9 9 9 9 10 14 14 14 13 13 13 13 13 14 13 13 13 15 15 14 14 15 15 15 15 16 16 16 17 17 18 18 19 20 20 21 21 21
6 6 7 7 7 7 7 7 7 7 7 6 6 5 6 6 6 6 7 9 9 10 7 8 8 8 9 9 8 8 9 9 8 9 9 9 9 8 9 9 9 8 11 12 13 13 13 14 14 15 15 15 15 15 15 15 15 15 16 16 15 16 15 16 17 18 18 19 19 20 21 21 21 22
7 8 8 8 7 6 7 7 7 7 6 6 6 6 5 7 7 7 7 8 9 10 9 8 9 8 9 10 9 9 8 9 9 9 10 9 8 8 9 10 9 10 9 10 12 13 13 14 15 16 16 16 16 16 15 16 16 16 16 16 16 16 16 16 17 18 19 19 20 21 21 21 21 22
8 9 9 8 7 7 8 7 7 6 6 6 5 5 5 6 8 7 7 8 9 9 10 8 9 8 8 9 10 9 8 10 9 8 9 9 9 10 9 10 10 10 10 10 12 13 14 15 16 16 17 17 17 16 16 15 16 16 16 16 16 16 16 17 17 18 19 19 20 21 21 21 21 22
10 10 10 9 8 7 8 7 7 6 7 7 6 6 6 7 7 7 7 8 8 9 10 10 9 8 8 8 9 9 10 10 9 9 10 9 10 10 10 10 10 12 12 13 16 16 16 16 16 18 18 18 17 17 17 17 16 16 17 17 17 17 17 17 18 18 19 19 20 20 20 21 22 22
10 9 10 10 9 8 8 8 8 8 9 8 8 8 7 7 7 8 8 8 9 10 10 10 10 8 9 8 8 8 9 9 10 9 9 10 9 9 10 10 9 9 9 9 9 9 11 14 17 18 18 18 18 18 18 18 18 17 17 18 18 18 18 18 19 19 19 19 20 21 21 21 22 22
10 10 10 10 9 9 9 10 10 9 9 8 9 8 8 8 8 8 8 9 10 10 10 10 10 9 8 8 9 8 9 10 9 10 9 10 9 8 10 10 11 10 11 13 13 13 13 15 16 17 16 16 17 18 19 20 20 19 19 19 19 19 19 19 19 20 20 20 20 20 21 21 22 22
10 10 10 10 10 10 10 11 10 10 9 8 9 8 8 8 9 9 9 9 9 10 10 10 10 9 9 8 8 8 8 9 9 9 9 11 10 10 10 11 11 9 10 12 12 11 12 13 15 17 19 20 20 21 20 21 22 23 23 20 19 19 19 19 19 20 20 20 20 20 21 21 22 22
10 10 10 10 10 11 10 10 9 9 7 7 8 8 8 9 9 9 9 9 10 9 10 10 9 9 9 9 9 9 9 10 11 9 9 11 11 11 11 11 11 11 12 11 12 12 13 13 13 14 13 12 13 14 17 16 22 24 22 19 18 18 18 18 18 19 19 20 21 21 21 22 22 23
10 11 10 10 10 8 8 9 11 12 11 9 9 9 9 10 10 9 9 9 9 10 11 11 10 10 10 10 10 10 11 10 10 11 10 11 11 12 12 12 10 10 11 12 12 12 11 12 13 13 14 13 13 14 13 14 14 12 11 13 15 15 16 17 17 18 19 20 21 21 21 22 23 23
10 10 10 9 8 9 10 11 12 12 12 12 13 14 13 10 9 11 11 10 10 10 11 11 11 11 12 12 11 11 11 10 11 10 10 11 11 12 13 13 10 8 9 11 13 12 12 13 14 14 13 13 14 14 15 17 16 14 14 15 17 18 18 19 19 20 20 20 21 21 21 22 22 23
9 10 10 9 8 9 11 11 10 12 14 14 15 15 14 15 14 11 9 10 10 11 11 11 11 11 11 12 11 11 11 11 11 11 11 11 11 13 13 13 14 10 10 13 14 15 11 12 15 17 14 14 14 16 17 17 16 18 20 20 20 20 20 20 20 21 21 21 21 21 21 22 22 23
10 10 10 9 9 9 9 9 11 11 10 13 15 15 14 13 13 13 13 13 11 11 12 12 12 12 12 13 11 10 11 11 12 11 11 10 11 12 14 13 13 12 11 12 13 15 14 13 15 16 14 14 15 16 17 16 15 17 19 19 19 20 21 21 21 22 22 22 22 22 22 21 22 23
11 11 11 10 10 10 10 10 10 9 9 9 8 8 8 9 12 15 16 15 16 13 11 12 13 13 12 12 12 12 11 11 11 11 10 12 13 13 14 14 14 13 11 14 13 15 14 12 15 16 15 15 15 14 18 19 16 17 18 19 20 21 22 22 22 22 23 23 22 22 22 21 21 22
12 12 11 12 12 11 11 10 7 8 8 7 8 9 9 9 9 7 7 8 8 8 9 10 12 12 12 12 12 11 10 11 11 12 13 13 13 14 14 15 14 14 13 15 13 16 14 13 14 16 15 15 16 15 18 18 16 17 18 18 19 20 22 23 23 23 23 23 23 22 22 22 22 22
11 11 12 11 11 11 10 9 6 6 7 9 10 10 9 9 7 6 8 10 11 11 10 10 11 10 9 7 8 7 8 9 9 9 9 9 11 13 13 14 13 13 11 11 12 15 15 13 16 16 14 15 17 15 17 19 17 16 17 19 20 21 22 23 23 24 24 24 24 23 22 22 22 21
12 10 10 8 6 7 10 7 7 7 6 9 11 10 8 6 7 10 8 9 12 9 8 11 13 13 13 12 11 11 10 8 7 8 9 11 11 12 14 13 12 12 11 10 12 15 16 14 14 16 16 15 16 16 17 17 20 17 16 17 19 20 21 23 24 24 25 25 24 23 23 22 21 22
10 11 10 9 9 11 11 8 9 9 8 9 10 9 9 9 9 9 8 5 6 12 11 12 14 13 12 12 13 12 12 12 9 9 11 11 11 13 13 14 12 12 11 12 12 14 15 15 13 15 15 16 16 18 18 17 15 16 17 19 20 21 23 25 25 25 25 26 25 24 24 22 20 15
9 9 8 12 12 11 11 6 3 9 9 9 10 9 9 10 10 8 7 7 8 6 7 8 9 10 13 12 10 10 15 17 14 12 13 12 11 12 14 14 14 14 11 9 10 14 14 14 14 13 15 15 13 13 15 14 13 14 15 18 18 20 20 22 24 25 26 26 25 25 24 22 19 12
9 9 9 8 14 14 13 7 8 9 10 9 10 10 9 9 10 7 6 5 5 6 7 9 11 12 11 11 11 10 9 9 12 13 13 13 12 13 14 13 13 13 12 10 12 14 14 14 16 13 15 18 17 13 14 16 16 17 16 18 17 20 21 22 20 25 26 25 26 25 24 23 21 13
10 9 8 8 10 15 14 11 10 9 9 8 7 8 9 4 5 5 7 6 4 7 8 10 10 10 9 9 9 8 8 9 9 10 11 11 11 11 12 13 14 14 13 12 12 13 14 14 16 15 15 15 18 20 17 17 15 16 16 15 18 19 17 18 16 15 19 27 26 26 25 24 24 18
9 8 7 7 3 10 9 10 10 9 7 6 7 5 5 6 6 5 6 6 6 7 7 8 9 9 9 9 9 10 11 12 11 11 11 11 11 11 12 13 14 15 14 13 13 14 14 14 15 16 15 16 18 16 17 18 15 15 17 16 15 16 16 17 16 16 14 12 14 19 20 25 23 25
9 9 8 0 9 8 7 6 5 5 6 6 6 4 3 3 2 5 5 5 5 7 7 8 9 9 9 10 10 10 11 11 11 11 11 12 13 13 13 13 13 14 15 15 15 15 14 15 16 17 18 17 18 15 14 19 19 15 14 16 17 17 17 17 16 15 15 14 14 21 23 22 23 24
8 8 6 4 8 8 8 7 6 6 8 5 3 3 3 4 5 5 5 5 6 6 7 8 9 9 9 10 10 11 11 12 11 10 12 13 14 13 13 14 15 15 15 16 16 16 14 15 16 17 16 16 16 14 18 19 17 21 17 19 17 17 16 17 16 15 15 15 15 13 13 13 14 16
5 7 8 8 7 8 7 7 6 6 8 8 5 5 6 7 5 4 5 5 6 7 8 8 9 9 9 9 10 11 12 12 11 11 11 12 13 13 14 14 13 13 12 13 14 15 15 14 16 17 16 14 13 15 16 19 19 19 20 17 16 15 16 17 16 16 15 14 13 15 15 14 14 14
4 3 4 7 6 4 3 5 6 7 4 7 6 7 8 5 4 4 4 5 7 8 8 8 9 10 10 11 11 11 9 10 11 12 12 12 12 12 11 12 12 12 13 14 14 15 15 15 15 16 17 15 13 17 20 19 20 19 16 14 16 16 17 16 15 15 15 14 13 15 15 15 15 15
7 6 5 2 2 3 4 3 4 5 7 3 4 5 5 6 5 5 6 6 7 7 8 9 10 10 10 9 8 9 11 11 11 11 11 11 12 11 11 12 13 12 11 12 13 14 14 15 16 16 16 15 16 18 22 20 18 17 17 15 14 13 11 13 14 14 14 13 12 13 15 15 14 16
5 5 5 5 6 6 7 6 5 4 3 4 4 4 4 4 4 3 5 3 5 6 6 9 10 10 10 9 9 9 9 10 10 9 10 10 11 11 11 11 12 11 11 12 13 14 15 14 14 14 15 15 18 21 20 18 14 13 14 14 13 14 14 12 11 13 13 8 7 11 13 16 16 14
4 4 5 7 8 8 7 7 6 6 4 4 4 5 6 6 6 6 6 7 7 8 9 9 8 8 8 8 9 9 10 9 9 9 9 10 10 11 10 12 12 12 12 13 13 14 14 14 13 13 13 15 17 20 19 14 10 12 13 12 11 12 11 9 9 10 11 8 8 13 15 13 14 15
6 7 8 8 8 7 6 6 5 5 5 5 5 4 3 3 7 6 6 7 8 6 6 7 8 8 8 8 9 9 9 9 9 9 10 10 9 10 10 12 12 11 12 14 14 14 15 15 14 14 13 13 13 14 7 9 10 10 9 9 10 10 6 5 11 11 8 9 14 14 13 12 13 14
6 7 8 8 7 6 6 6 4 4 4 4 5 5 5 5 5 6 7 7 4 6 7 7 7 7 8 8 8 9 9 9 10 9 9 9 9 9 10 11 11 12 12 13 14 14 14 14 16 16 15 14 13 7 3 4 7 10 11 9 8 7 8 6 8 5 6 5 10 12 11 11 11 13
7 8 7 7 5 4 4 3 3 4 5 4 5 6 6 6 6 6 8 4 5 7 7 7 7 7 8 8 8 8 9 9 9 9 9 9 9 9 10 10 10 11 12 12 13 13 13 14 14 16 14 15 14 15 12 6 8 7 10 12 11 10 9 9 7 4 6 10 7 7 9 12 11 12
7 6 5 4 3 3 5 4 3 4 5 5 5 6 6 7 8 8 4 2 6 7 6 6 7 7 7 7 8 8 8 8 9 9 9 9 9 9 10 10 10 10 11 12 12 12 12 12 12 10 13 14 15 13 13 10 3 3 8 9 10 8 9 8 5 7 9 10 10 11 9 9 10 12
7 4 4 5 4 4 4 4 3 3 4 4 6 6 7 7 6 4 3 5 6 6 6 6 7 7 7 7 8 8 8 8 8 9 9 9 9 9 10 10 11 11 11 12 12 12 12 10 8 9 11 14 15 14 15 12 10 4 7 9 10 10 6 7 7 8 8 7 8 10 9 10 10 11
6 3 3 4 3 3 4 3 3 4 5 5 6 6 5 4 5 4 4 5 5 6 6 6 6 5 7 7 7 8 8 8 9 9 9 9 9 10 10 10 11 10 12 13 12 12 10 8 7 9 11 14 16 16 16 14 11 11 4 5 7 7 6 5 7 7 8 7 6 3 6 5 4 10
3 4 4 3 1 1 3 3 4 4 5 5 5 4 4 5 4 4 5 4 4 5 6 6 6 6 7 6 7 7 8 9 9 9 9 9 9 10 10 10 11 11 11 13 13 12 11 10 9 12 13 12 12 13 14 12 8 7 6 2 7 10 8 7 5 6 5 5 3 6 7 4 7 5
3 4 3 3 2 2 3 4 5 4 5 4 4 3 4 3 5 4 4 4 5 5 6 6 5 6 6 7 7 7 8 8 8 9 9 10 10 10 11 12 10 9 11 11 11 11 11 9 12 19 15 10 11 10 8 9 12 11 10 10 3 4 10 10 7 5 4 6 4 6 8 7 7 7
4 3 1 2 4 4 4 4 4 5 5 3 4 3 2 4 3 1 5 6 6 5 6 5 5 6 6 6 7 7 8 8 8 9 9 10 10 10 11 10 10 11 11 12 12 12 11 10 9 9 10 10 10 11 12 12 11 10 10 10 10 7 4 8 12 13 11 10 4 7 8 6 6 7
4 3 2 3 3 4 4 4 4 4 4 3 3 3 4 5 3 4 5 3 3 5 4 5 5 5 6 6 6 7 8 8 8 9 10 9 10 10 10 10 10 11 12 12 11 10 10 10 8 8 9 9 9 9 12 13 11 10 10 11 11 10 9 7 9 13 20 19 12 5 5 3 8 9
4 3 4 2 4 4 5 5 4 3 4 4 3 3 4 4 4 3 3 3 4 4 4 5 5 6 6 6 7 7 7 7 9 9 9 9 10 10 10 11 11 11 11 11 11 11 10 10 7 6 8 9 9 10 12 12 11 10 11 11 12 12 11 10 9 11 16 22 23 16 16 15 12 12
3 4 4 3 4 5 5 4 4 3 3 3 4 4 3 4 4 3 3 3 3 3 5 5 5 6 6 6 7 8 8 9 9 8 8 9 9 9 10 10 10 11 12 11 10 10 10 9 8 6 6 7 8 9 11 11 11 10 12 14 13 10 11 11 13 13 11 12 20 23 19 19 19 20
Wind_Direction
245 246 243 251 257 263 264 270 271 272 267 270 275 274 280 286 285 284 290 294 299 290 300 303 302 252 252 270 280 280 278 274 236 290 283 278 278 190 181 236 272 271 265 267 273 276 277 277 279 283 287 287 287 288 289 288 286 284 281 277 273 273 277 275 270 263 253 243 237 233 231 232 233 235
243 243 249 250 254 253 252 252 259 254 250 259 260 269 270 275 280 287 287 292 292 293 292 281 287 281 275 276 275 280 282 300 240 280 279 278 278 332 237 260 260 257 258 260 263 267 273 276 274 278 281 279 280 282 282 283 282 282 281 279 274 271 271 272 270 264 257 248 239 233 232 232 234 235
250 251 255 255 258 259 265 267 262 254 247 250 262 266 266 267 269 280 287 288 278 283 293 293 287 292 286 288 288 279 276 286 288 285 285 278 292 279 270 255 245 242 244 249 255 258 266 271 275 279 280 280 277 278 278 278 279 279 280 279 277 274 269 265 266 266 261 253 244 237 234 234 235 235
255 261 260 257 257 257 260 263 257 255 253 261 268 269 267 263 262 265 275 276 283 286 287 290 291 286 290 286 281 287 288 276 252 268 276 282 278 267 266 241 225 230 230 238 244 253 258 265 272 276 279 278 278 278 277 274 274 274 275 274 275 275 273 267 262 260 260 257 250 243 236 236 236 236
254 261 264 265 262 258 257 255 260 257 258 257 257 261 263 267 264 264 271 277 281 282 282 290 290 292 292 287 286 287 288 286 284 272 279 284 282 280 277 279 249 217 222 226 236 245 252 261 267 272 275 275 273 275 276 275 273 272 272 273 271 270 269 267 263 259 257 257 253 247 241 237 236 236
250 251 256 260 267 261 255 254 257 262 263 264 264 256 266 271 271 264 270 275 280 282 284 276 283 290 290 289 293 296 299 297 292 290 292 287 281 278 281 282 285 266 215 221 229 240 250 258 265 268 270 272 272 272 274 274 273 271 271 271 269 266 264 261 260 259 256 253 253 251 244 239 236 235
257 257 259 261 260 262 260 252 253 259 259 261 259 266 270 273 275 274 267 274 278 281 282 282 282 282 289 291 301 300 295 293 291 290 285 288 292 290 285 283 282 281 270 242 237 243 250 257 263 268 269 269 270 269 268 270 270 269 269 267 265 264 263 261 258 256 256 253 249 250 248 241 236 235
258 260 261 259 261 261 262 261 256 253 256 253 252 256 260 262 265 267 267 263 272 279 285 282 282 291 292 292 292 291 291 288 287 285 287 287 283 287 287 282 282 285 282 268 254 248 250 254 259 262 264 266 267 266 263 262 265 266 264 263 262 261 260 260 258 255 253 252 249 246 246 245 240 236
263 261 259 263 260 258 261 257 254 254 250 250 251 250 251 254 261 266 264 267 266 274 279 285 285 288 283 283 281 287 293 296 292 278 282 289 290 289 288 286 280 273 261 255 253 254 252 250 250 251 255 259 260 261 262 260 260 261 261 260 260 260 259 259 257 255 252 249 248 246 242 243 243 238
257 257 257 255 253 254 256 260 255 250 248 251 252 255 258 263 268 269 271 269 270 272 276 281 288 288 288 286 283 288 287 284 287 289 290 289 283 282 284 288 294 296 291 291 277 258 247 241 236 243 248 251 253 255 260 263 261 257 256 256 257 258 258 258 258 256 252 248 246 245 242 239 239 239
258 255 251 248 246 247 248 251 254 252 249 247 252 254 260 263 266 269 271 273 271 272 276 278 278 283 278 283 289 285 287 289 287 285 285 282 285 282 285 286 290 293 291 288 277 265 265 276 277 266 250 243 248 254 259 262 260 258 254 252 252 253 253 254 255 255 254 250 245 242 241 239 237 237
257 254 249 247 241 240 243 245 248 250 250 253 250 254 263 270 273 276 278 282 281 280 281 282 285 284 286 281 274 279 279 280 278 280 296 298 294 288 285 286 288 283 286 288 290 281 264 255 250 246 244 245 248 252 254 254 255 256 254 249 248 249 250 251 252 253 252 251 247 242 239 238 237 236
251 252 250 248 250 245 243 247 255 264 278 269 265 265 266 270 276 276 281 285 287 284 282 283 281 282 281 282 282 283 285 288 294 299 294 288 285 286 284 279 277 282 286 284 284 285 291 290 284 286 288 283 272 256 240 244 243 244 245 246 246 246 248 250 252 252 251 251 248 243 239 237 235 234
251 249 252 254 248 241 231 226 230 236 244 245 259 268 270 273 273 274 273 277 283 286 285 286 290 288 284 285 288 291 291 292 290 289 292 288 295 296 291 286 279 281 284 288 284 282 284 285 283 282 282 279 274 278 274 278 281 281 271 258 251 247 247 249 250 251 250 249 248 244 239 236 235 233
259 260 255 256 244 220 222 227 227 231 228 234 237 245 254 260 264 270 270 271 278 284 288 288 287 286 288 287 290 288 292 289 294 296 294 295 294 294 296 294 293 281 290 288 289 284 280 282 281 278 275 275 274 275 273 267 265 257 255 258 260 259 256 255 255 254 252 249 247 244 239 235 234 232
259 258 259 259 256 252 249 253 230 218 224 227 229 234 239 242 246 248 259 271 278 282 287 288 286 288 285 288 287 289 291 297 297 294 294 292 292 293 291 290 291 301 296 291 291 286 282 280 278 281 278 279 276 272 271 268 260 257 258 259 260 259 257 254 253 253 253 250 246 244 240 235 232 231
261 263 263 263 260 264 235 236 253 260 232 211 220 225 231 237 238 239 239 245 255 272 276 278 278 276 284 286 286 288 294 298 292 294 292 291 292 290 290 291 294 297 301 294 285 283 286 286 281 279 278 279 277 277 273 265 251 250 250 252 255 256 256 254 251 251 251 250 246 242 239 235 232 229
259 260 263 260 261 259 256 255 253 247 249 255 227 221 228 235 223 219 226 229 235 240 256 267 274 275 275 279 284 288 289 289 291 294 290 295 295 293 290 296 293 287 285 280 283 283 281 281 284 281 283 281 278 274 271 270 260 255 253 253 256 258 256 253 250 249 248 247 245 241 238 235 231 229
258 262 261 264 265 267 264 260 260 253 255 254 257 258 257 255 261 252 226 223 224 233 239 249 261 271 269 273 279 283 287 292 295 293 295 293 290 289 288 282 272 273 264 265 270 273 276 281 279 279 280 280 275 272 277 272 258 254 253 254 256 257 256 253 250 248 246 245 243 239 237 233 230 227
262 260 262 264 266 271 270 261 180 221 248 256 255 254 252 254 261 278 251 229 242 257 272 281 283 285 312 337 307 309 308 301 292 289 284 276 276 277 277 278 278 277 274 275 276 277 278 281 282 285 287 284 278 275 277 280 271 264 263 262 261 258 255 252 249 247 244 242 240 237 234 231 228 225
262 261 257 250 247 262 264 254 173 202 211 252 256 253 251 253 253 256 258 211 210 210 219 251 264 267 268 276 282 273 259 253 274 291 285 275 271 278 282 281 282 283 290 284 281 282 286 290 291 290 284 279 280 283 283 280 277 268 259 263 264 262 259 256 250 246 242 239 237 234 232 228 226 223
264 262 245 231 245 258 253 233 217 192 196 242 250 253 252 254 255 261 263 260 194 203 223 229 238 245 248 243 247 253 254 247 233 253 264 273 280 281 285 288 289 290 291 287 285 281 283 293 288 285 285 283 277 281 283 285 281 278 268 261 259 257 255 254 249 244 240 236 234 231 227 224 220 220
266 266 234 221 241 252 254 268 176 176 204 244 250 254 260 260 263 268 278 275 280 264 238 238 236 240 232 235 245 250 231 233 223 226 250 266 271 283 290 291 293 289 282 290 301 289 290 290 288 290 292 287 284 284 283 277 274 275 278 284 281 271 259 250 244 240 237 232 230 227 222 220 210 217
259 254 258 215 205 229 244 242 179 190 208 249 259 260 263 264 264 285 283 299 310 296 290 288 289 288 290 284 274 269 260 238 223 223 248 263 273 280 286 287 285 286 291 294 301 294 295 293 290 288 289 296 296 295 287 283 285 287 285 287 283 278 269 259 245 236 234 228 226 222 218 214 202 212
268 264 256 270 196 208 224 224 198 194 206 237 264 263 260 300 19 345 290 289 259 276 283 283 280 282 281 279 280 278 273 274 277 278 277 281 285 287 287 289 290 289 291 298 306 291 290 292 287 289 287 286 291 294 293 287 280 284 285 282 282 278 274 268 262 251 220 222 220 217 215 210 199 202
276 274 274 280 201 179 196 203 195 191 195 213 246 276 10 13 1 318 287 291 287 274 279 280 282 286 285 285 289 286 283 287 290 291 293 294 291 287 285 288 290 291 290 293 292 286 286 283 280 284 289 292 289 287 291 288 283 288 286 279 273 271 269 269 260 254 247 214 211 213 212 207 197 200
280 284 279 112 121 142 154 160 150 163 173 194 234 273 351 33 13 279 267 272 275 271 271 281 284 285 285 287 288 293 296 293 293 298 297 292 289 283 280 278 278 282 287 289 286 281 277 278 276 281 291 290 289 288 281 287 290 290 278 276 275 273 270 264 254 252 243 233 218 194 201 197 195 197
278 285 303 83 105 115 128 131 148 161 184 222 145 193 202 223 233 245 253 246 253 265 268 266 273 279 288 294 292 291 295 297 303 295 288 284 281 280 282 284 282 280 282 282 283 281 279 277 279 282 279 284 287 284 289 281 277 286 282 283 277 272 267 261 254 246 238 234 225 195 186 189 194 194
360 54 82 101 115 117 119 145 173 198 215 241 253 221 208 220 228 230 249 262 260 264 270 274 280 286 287 287 289 292 295 297 289 279 278 281 285 286 283 283 284 282 278 279 280 281 281 277 277 281 279 280 277 280 279 281 284 284 282 279 275 263 257 253 248 241 231 224 220 203 185 182 179 188
321 332 103 105 115 127 148 191 209 229 173 180 209 204 211 212 228 239 255 260 267 275 280 289 291 291 291 291 299 309 296 281 285 293 292 292 291 294 296 297 292 287 283 282 282 284 284 280 276 278 281 281 268 275 280 282 282 276 274 263 264 264 255 251 241 232 226 220 209 213 191 176 175 178
237 186 210 167 117 44 149 264 46 79 111 169 191 194 206 240 249 232 239 264 281 285 287 287 290 293 298 302 294 279 287 290 288 292 296 295 298 302 300 297 292 289 289 290 291 292 290 287 284 285 289 287 283 279 282 278 273 277 275 268 256 248 247 235 230 229 223 221 209 212 193 177 172 178
214 173 138 141 190 175 187 192 198 195 191 209 231 241 245 251 267 322 358 321 271 265 270 286 294 294 292 288 286 291 289 290 296 298 299 300 299 299 300 295 293 295 298 295 296 295 292 292 293 294 290 286 290 291 288 281 268 259 264 259 251 245 243 242 227 219 216 204 196 205 198 181 175 175
213 221 225 223 218 221 227 229 216 178 200 231 248 254 255 254 251 251 257 272 285 285 290 290 289 289 289 289 293 291 292 295 299 300 298 299 296 296 293 293 297 304 305 305 305 301 301 307 307 296 288 289 286 285 286 288 276 270 257 251 247 251 242 222 240 227 205 197 199 210 194 191 179 178
273 238 243 242 248 242 231 241 224 225 224 237 239 244 169 259 275 281 288 281 281 293 288 282 283 288 294 291 293 297 298 301 299 302 298 293 295 294 296 303 305 307 307 307 308 310 314 315 312 298 292 286 284 283 321 337 332 331 319 295 276 257 242 247 242 220 198 207 201 204 185 185 186 183
232 247 254 254 254 259 255 253 249 250 252 258 258 257 235 268 289 275 270 284 307 298 288 288 288 291 293 295 298 300 302 303 304 302 299 299 297 297 302 304 307 310 311 311 310 313 317 319 318 317 315 318 320 305 152 32 342 345 331 318 317 305 282 266 249 198 206 236 207 179 184 183 189 183
254 254 259 266 266 259 263 264 267 275 277 257 267 279 280 283 289 291 290 337 309 296 286 286 298 298 295 297 301 301 301 301 300 304 308 307 308 308 306 305 309 312 313 310 313 315 318 316 319 323 323 325 325 323 332 80 68 5 350 335 326 317 306 269 253 204 194 232 216 173 176 189 191 191
252 255 261 266 260 259 267 270 249 242 265 281 276 275 288 288 287 298 339 337 281 278 285 297 290 294 298 299 300 296 298 303 307 310 307 311 313 311 310 311 314 315 316 317 317 314 320 318 319 319 323 321 322 319 320 326 5 58 10 342 332 320 315 305 271 239 210 202 203 202 183 186 192 190
263 261 266 266 266 267 277 277 274 263 263 267 279 284 280 285 296 283 270 267 264 280 295 292 299 298 301 308 301 304 307 306 309 309 313 315 316 318 316 316 317 320 320 316 318 318 322 317 314 323 326 325 321 325 326 329 323 349 51 2 345 321 324 334 293 229 218 203 210 193 184 195 191 187
258 257 254 264 269 261 262 263 285 284 273 269 273 284 292 292 286 290 282 284 307 306 299 293 292 313 308 296 299 304 306 313 313 314 316 319 320 319 316 316 320 319 320 321 320 324 325 315 316 328 327 327 326 324 322 317 319 316 12 3 353 338 343 330 324 266 217 205 212 210 243 207 131 133
268 273 270 276 237 245 269 272 260 260 270 276 286 294 294 286 290 286 284 294 305 306 294 292 300 298 290 300 307 307 308 310 311 314 319 320 320 317 316 322 313 313 323 326 325 322 325 328 322 327 324 317 305 306 310 301 299 317 350 345 55 34 6 333 314 308 275 228 198 185 206 178 144 149
249 249 250 257 275 249 255 257 263 272 279 287 277 263 272 312 293 287 320 329 315 295 294 298 300 300 301 308 306 311 312 312 314 317 321 318 318 319 316 309 307 322 326 321 321 321 324 322 313 312 314 312 310 310 316 343 352 349 352 350 343 60 45 26 351 338 12 328 262 210 200 181 135 155
255 253 247 241 244 253 263 264 270 281 290 277 276 282 263 249 248 41 286 234 245 264 280 292 306 302 306 307 310 314 312 313 316 320 320 320 321 319 316 317 322 329 321 325 328 322 317 316 315 321 322 325 336 344 342 336 339 342 354 350 351 355 61 63 39 44 54 49 338 220 171 171 160 171
253 269 221 247 269 276 274 284 282 278 270 276 284 305 288 275 256 212 260 270 276 283 302 310 308 310 312 313 316 314 310 313 323 320 317 318 322 321 322 323 324 323 327 324 324 323 322 321 324 327 326 335 339 339 333 336 338 342 353 358 356 350 358 31 52 47 51 46 52 44 355 249 187 185
254 250 254 247 257 254 264 266 271 284 277 266 251 242 253 271 264 262 271 287 292 302 320 311 311 313 315 317 316 314 313 327 322 312 316 320 320 322 320 321 321 324 327 330 331 334 337 331 326 334 334 339 337 337 334 334 344 348 355 355 1 359 3 359 9 33 46 42 26 17 34 33 42 53
256 265 266 243 246 258 258 262 262 252 263 266 256 254 257 252 265 276 273 283 293 314 301 307 315 319 317 319 321 316 324 314 306 315 318 321 325 324 325 325 327 330 334 336 328 331 341 332 336 336 331 331 339 337 332 334 345 346 359 2 2 352 0 1 17 25 30 44 24 24 33 44 49 57